Location: Unspecified
(43.4680°N, 87.1740°E)
Time: 05:52:29
(UTC+00:00)

Cosmos 1238 Rocket - Pass Details

Date: 17 April 2021
Orbit: 376 x 1020 km, 83.0° (Epoch: 16 May)

Event Time Altitude Azimuth Distance (km) Brightness Sun altitude
Rises 20:17:37 0° 348° (NNW) 3,561 7.5 -28.5°
Reaches altitude 10° 20:20:03 10° 345° (NNW) 2,679 6.7 -28.3°
Enters shadow 20:26:03 60° 274° (W) 1,144 4.1 -27.6°
